Year,Month,Day,Hour,Minute,Value (Times are PST for temperature in C)
2011,05,31,00,00,8.60
2011,05,31,00,01,8.50
2011,05,31,00,02,8.50
2011,05,31,00,03,8.50
2011,05,31,00,04,8.50
2011,05,31,00,05,8.40
2011,05,31,00,06,8.40
2011,05,31,00,07,8.40
2011,05,31,00,08,8.40
2011,05,31,00,09,8.40
2011,05,31,00,10,8.40
2011,05,31,00,11,8.30
2011,05,31,00,12,8.30
2011,05,31,00,13,8.30
2011,05,31,00,14,8.30
2011,05,31,00,15,8.30
2011,05,31,00,16,8.30
2011,05,31,00,17,8.30
2011,05,31,00,18,8.30
2011,05,31,00,19,8.30
2011,05,31,00,20,8.30
2011,05,31,00,21,8.20
2011,05,31,00,22,8.20
2011,05,31,00,23,8.20
2011,05,31,00,24,8.20
2011,05,31,00,25,8.20
2011,05,31,00,26,8.20
2011,05,31,00,27,8.20
2011,05,31,00,28,8.10
2011,05,31,00,29,8.10
2011,05,31,00,30,8.10
2011,05,31,00,31,8.10
2011,05,31,00,32,8.10
2011,05,31,00,33,8.10
2011,05,31,00,34,8.10
2011,05,31,00,35,8.10
2011,05,31,00,36,8.10
2011,05,31,00,37,8.10
2011,05,31,00,38,8.10
2011,05,31,00,39,8.00
2011,05,31,00,40,8.00
2011,05,31,00,41,8.00
2011,05,31,00,42,8.00
2011,05,31,00,43,8.00
2011,05,31,00,44,8.00
2011,05,31,00,45,8.00
2011,05,31,00,46,8.00
2011,05,31,00,47,8.00
2011,05,31,00,48,8.00
2011,05,31,00,49,8.00
2011,05,31,00,50,7.90
2011,05,31,00,51,7.90
2011,05,31,00,52,7.90
2011,05,31,00,53,7.90
2011,05,31,00,54,7.90
2011,05,31,00,55,7.90
2011,05,31,00,56,7.90
2011,05,31,00,57,7.90
2011,05,31,00,58,7.90
2011,05,31,00,59,7.90
2011,05,31,01,00,7.90
2011,05,31,01,01,7.90
2011,05,31,01,02,7.90
2011,05,31,01,03,7.90
2011,05,31,01,04,7.90
2011,05,31,01,05,7.90
2011,05,31,01,06,7.90
2011,05,31,01,07,7.80
2011,05,31,01,08,7.80
2011,05,31,01,09,7.80
2011,05,31,01,10,7.80
2011,05,31,01,11,7.80
2011,05,31,01,12,7.80
2011,05,31,01,13,7.70
2011,05,31,01,14,7.70
2011,05,31,01,15,7.70
2011,05,31,01,16,7.70
2011,05,31,01,17,7.70
2011,05,31,01,18,7.70
2011,05,31,01,19,7.70
2011,05,31,01,20,7.60
2011,05,31,01,21,7.60
2011,05,31,01,22,7.60
2011,05,31,01,23,7.60
2011,05,31,01,24,7.60
2011,05,31,01,25,7.60
2011,05,31,01,26,7.60
2011,05,31,01,27,7.60
2011,05,31,01,28,7.60
2011,05,31,01,29,7.60
2011,05,31,01,30,7.60
2011,05,31,01,31,7.60
2011,05,31,01,32,7.60
2011,05,31,01,33,7.50
2011,05,31,01,34,7.50
2011,05,31,01,35,7.50
2011,05,31,01,36,7.50
2011,05,31,01,37,7.50
2011,05,31,01,38,7.50
2011,05,31,01,39,7.50
2011,05,31,01,40,7.50
2011,05,31,01,41,7.40
2011,05,31,01,42,7.40
2011,05,31,01,43,7.40
2011,05,31,01,44,7.40
2011,05,31,01,45,7.40
2011,05,31,01,46,7.40
2011,05,31,01,47,7.40
2011,05,31,01,48,7.30
2011,05,31,01,49,7.30
2011,05,31,01,50,7.30
2011,05,31,01,51,7.30
2011,05,31,01,52,7.30
2011,05,31,01,53,7.30
2011,05,31,01,54,7.30
2011,05,31,01,55,7.30
2011,05,31,01,56,7.30
2011,05,31,01,57,7.30
2011,05,31,01,58,7.30
2011,05,31,01,59,7.30
2011,05,31,02,00,7.30
2011,05,31,02,01,7.30
2011,05,31,02,02,7.30
2011,05,31,02,03,7.30
2011,05,31,02,04,7.30
2011,05,31,02,05,7.30
2011,05,31,02,06,7.30
2011,05,31,02,07,7.30
2011,05,31,02,08,7.30
2011,05,31,02,09,7.30
2011,05,31,02,10,7.30
2011,05,31,02,11,7.30
2011,05,31,02,12,7.20
2011,05,31,02,13,7.20
2011,05,31,02,14,7.20
2011,05,31,02,15,7.20
2011,05,31,02,16,7.20
2011,05,31,02,17,7.20
2011,05,31,02,18,7.20
2011,05,31,02,19,7.20
2011,05,31,02,20,7.20
2011,05,31,02,21,7.20
2011,05,31,02,22,7.20
2011,05,31,02,23,7.20
2011,05,31,02,24,7.20
2011,05,31,02,25,7.20
2011,05,31,02,26,7.20
2011,05,31,02,27,7.20
2011,05,31,02,28,7.20
2011,05,31,02,29,7.20
2011,05,31,02,30,7.20
2011,05,31,02,31,7.20
2011,05,31,02,32,7.20
2011,05,31,02,33,7.20
2011,05,31,02,34,7.20
2011,05,31,02,35,7.20
2011,05,31,02,36,7.20
2011,05,31,02,37,7.20
2011,05,31,02,38,7.20
2011,05,31,02,39,7.20
2011,05,31,02,40,7.20
2011,05,31,02,41,7.20
2011,05,31,02,42,7.20
2011,05,31,02,43,7.20
2011,05,31,02,44,7.20
2011,05,31,02,45,7.20
2011,05,31,02,46,7.20
2011,05,31,02,47,7.20
2011,05,31,02,48,7.20
2011,05,31,02,49,7.20
2011,05,31,02,50,7.20
2011,05,31,02,51,7.20
2011,05,31,02,52,7.20
2011,05,31,02,53,7.20
2011,05,31,02,54,7.20
2011,05,31,02,55,7.20
2011,05,31,02,56,7.20
2011,05,31,02,57,7.20
2011,05,31,02,58,7.20
2011,05,31,02,59,7.20
2011,05,31,03,00,7.20
2011,05,31,03,01,7.20
2011,05,31,03,02,7.20
2011,05,31,03,03,7.20
2011,05,31,03,04,7.20
2011,05,31,03,05,7.10
2011,05,31,03,06,7.10
2011,05,31,03,07,7.10
2011,05,31,03,08,7.10
2011,05,31,03,09,7.10
2011,05,31,03,10,7.10
2011,05,31,03,11,7.10
2011,05,31,03,12,7.10
2011,05,31,03,13,7.10
2011,05,31,03,14,7.10
2011,05,31,03,15,7.10
2011,05,31,03,16,7.10
2011,05,31,03,17,7.10
2011,05,31,03,18,7.10
2011,05,31,03,19,7.00
2011,05,31,03,20,7.00
2011,05,31,03,21,7.00
2011,05,31,03,22,7.00
2011,05,31,03,23,7.00
2011,05,31,03,24,7.00
2011,05,31,03,25,7.00
2011,05,31,03,26,7.10
2011,05,31,03,27,7.10
2011,05,31,03,28,7.10
2011,05,31,03,29,7.10
2011,05,31,03,30,7.10
2011,05,31,03,31,7.20
2011,05,31,03,32,7.20
2011,05,31,03,33,7.20
2011,05,31,03,34,7.20
2011,05,31,03,35,7.20
2011,05,31,03,36,7.20
2011,05,31,03,37,7.20
2011,05,31,03,38,7.20
2011,05,31,03,39,7.20
2011,05,31,03,40,7.20
2011,05,31,03,41,7.20
2011,05,31,03,42,7.20
2011,05,31,03,43,7.20
2011,05,31,03,44,7.20
2011,05,31,03,45,7.20
2011,05,31,03,46,7.20
2011,05,31,03,47,7.20
2011,05,31,03,48,7.20
2011,05,31,03,49,7.20
2011,05,31,03,50,7.20
2011,05,31,03,51,7.20
2011,05,31,03,52,7.20
2011,05,31,03,53,7.20
2011,05,31,03,54,7.20
2011,05,31,03,55,7.20
2011,05,31,03,56,7.20
2011,05,31,03,57,7.20
2011,05,31,03,58,7.20
2011,05,31,03,59,7.20
2011,05,31,04,00,7.20
2011,05,31,04,01,7.20
2011,05,31,04,02,7.20
2011,05,31,04,03,7.20
2011,05,31,04,04,7.20
2011,05,31,04,05,7.20
2011,05,31,04,06,7.20
2011,05,31,04,07,7.20
2011,05,31,04,08,7.20
2011,05,31,04,09,7.20
2011,05,31,04,10,7.20
2011,05,31,04,11,7.20
2011,05,31,04,12,7.30
2011,05,31,04,13,7.30
2011,05,31,04,14,7.30
2011,05,31,04,15,7.30
2011,05,31,04,16,7.30
2011,05,31,04,17,7.30
2011,05,31,04,18,7.30
2011,05,31,04,19,7.30
2011,05,31,04,20,7.30
2011,05,31,04,21,7.30
2011,05,31,04,22,7.30
2011,05,31,04,23,7.30
2011,05,31,04,24,7.30
2011,05,31,04,25,7.30
2011,05,31,04,26,7.30
2011,05,31,04,27,7.30
2011,05,31,04,28,7.30
2011,05,31,04,29,7.30
2011,05,31,04,30,7.30
2011,05,31,04,31,7.30
2011,05,31,04,32,7.30
2011,05,31,04,33,7.30
2011,05,31,04,34,7.30
2011,05,31,04,35,7.30
2011,05,31,04,36,7.30
2011,05,31,04,37,7.30
2011,05,31,04,38,7.30
2011,05,31,04,39,7.30
2011,05,31,04,40,7.30
2011,05,31,04,41,7.30
2011,05,31,04,42,7.30
2011,05,31,04,43,7.30
2011,05,31,04,44,7.30
2011,05,31,04,45,7.30
2011,05,31,04,46,7.30
2011,05,31,04,47,7.30
2011,05,31,04,48,7.30
2011,05,31,04,49,7.30
2011,05,31,04,50,7.30
2011,05,31,04,51,7.30
2011,05,31,04,52,7.30
2011,05,31,04,53,7.30
2011,05,31,04,54,7.30
2011,05,31,04,55,7.30
2011,05,31,04,56,7.30
2011,05,31,04,57,7.30
2011,05,31,04,58,7.30
2011,05,31,04,59,7.30
2011,05,31,05,00,7.30
2011,05,31,05,01,7.30
2011,05,31,05,02,7.30
2011,05,31,05,03,7.30
2011,05,31,05,04,7.30
2011,05,31,05,05,7.30
2011,05,31,05,06,7.30
2011,05,31,05,07,7.30
2011,05,31,05,08,7.30
2011,05,31,05,09,7.30
2011,05,31,05,10,7.30
2011,05,31,05,11,7.20
2011,05,31,05,12,7.20
2011,05,31,05,13,7.20
2011,05,31,05,14,7.20
2011,05,31,05,15,7.20
2011,05,31,05,16,7.20
2011,05,31,05,17,7.30
2011,05,31,05,18,7.20
2011,05,31,05,19,7.20
2011,05,31,05,20,7.20
2011,05,31,05,21,7.20
2011,05,31,05,22,7.20
2011,05,31,05,23,7.20
2011,05,31,05,24,7.20
2011,05,31,05,25,7.20
2011,05,31,05,26,7.20
2011,05,31,05,27,7.20
2011,05,31,05,28,7.20
2011,05,31,05,29,7.30
2011,05,31,05,30,7.20
2011,05,31,05,31,7.30
2011,05,31,05,32,7.30
2011,05,31,05,33,7.30
2011,05,31,05,34,7.30
2011,05,31,05,35,7.30
2011,05,31,05,36,7.30
2011,05,31,05,37,7.30
2011,05,31,05,38,7.30
2011,05,31,05,39,7.30
2011,05,31,05,40,7.30
2011,05,31,05,41,7.30
2011,05,31,05,42,7.40
2011,05,31,05,43,7.40
2011,05,31,05,44,7.40
2011,05,31,05,45,7.40
2011,05,31,05,46,7.40
2011,05,31,05,47,7.40
2011,05,31,05,48,7.40
2011,05,31,05,49,7.40
2011,05,31,05,50,7.40
2011,05,31,05,51,7.40
2011,05,31,05,52,7.40
2011,05,31,05,53,7.40
2011,05,31,05,54,7.50
2011,05,31,05,55,7.50
2011,05,31,05,56,7.50
2011,05,31,05,57,7.50
2011,05,31,05,58,7.50
2011,05,31,05,59,7.50
2011,05,31,06,00,7.60
2011,05,31,06,01,7.60
2011,05,31,06,02,7.60
2011,05,31,06,03,7.60
2011,05,31,06,04,7.60
2011,05,31,06,05,7.60
2011,05,31,06,06,7.60
2011,05,31,06,07,7.60
2011,05,31,06,08,7.70
2011,05,31,06,09,7.70
2011,05,31,06,10,7.70
2011,05,31,06,11,7.80
2011,05,31,06,12,7.80
2011,05,31,06,13,7.90
2011,05,31,06,14,7.90
2011,05,31,06,15,8.00
2011,05,31,06,16,8.00
2011,05,31,06,17,8.00
2011,05,31,06,18,8.00
2011,05,31,06,19,8.10
2011,05,31,06,20,8.10
2011,05,31,06,21,8.10
2011,05,31,06,22,8.10
2011,05,31,06,23,8.10
2011,05,31,06,24,8.20
2011,05,31,06,25,8.20
2011,05,31,06,26,8.20
2011,05,31,06,27,8.20
2011,05,31,06,28,8.30
2011,05,31,06,29,8.30
2011,05,31,06,30,8.30
2011,05,31,06,31,8.40
2011,05,31,06,32,8.40
2011,05,31,06,33,8.50
2011,05,31,06,34,8.50
2011,05,31,06,35,8.50
2011,05,31,06,36,8.60
2011,05,31,06,37,8.60
2011,05,31,06,38,8.70
2011,05,31,06,39,8.80
2011,05,31,06,40,8.90
2011,05,31,06,41,8.90
2011,05,31,06,42,8.90
2011,05,31,06,43,9.00
2011,05,31,06,44,9.10
2011,05,31,06,45,9.10
2011,05,31,06,46,9.10
2011,05,31,06,47,9.20
2011,05,31,06,48,9.30
2011,05,31,06,49,9.30
2011,05,31,06,50,9.40
2011,05,31,06,51,9.40
2011,05,31,06,52,9.50
2011,05,31,06,53,9.60
2011,05,31,06,54,9.60
2011,05,31,06,55,9.70
2011,05,31,06,56,9.80
2011,05,31,06,57,9.80
2011,05,31,06,58,9.90
2011,05,31,06,59,10.00
2011,05,31,07,00,10.00
2011,05,31,07,01,10.10
2011,05,31,07,02,10.10
2011,05,31,07,03,10.20
2011,05,31,07,04,10.20
2011,05,31,07,05,10.30
2011,05,31,07,06,10.30
2011,05,31,07,07,10.40
2011,05,31,07,08,10.40
2011,05,31,07,09,10.40
2011,05,31,07,10,10.50
2011,05,31,07,11,10.60
2011,05,31,07,12,10.60
2011,05,31,07,13,10.60
2011,05,31,07,14,10.70
2011,05,31,07,15,10.70
2011,05,31,07,16,10.80
2011,05,31,07,17,10.90
2011,05,31,07,18,10.90
2011,05,31,07,19,11.00
2011,05,31,07,20,11.10
2011,05,31,07,21,11.10
2011,05,31,07,22,11.20
2011,05,31,07,23,11.30
2011,05,31,07,24,11.30
2011,05,31,07,25,11.40
2011,05,31,07,26,11.50
2011,05,31,07,27,11.60
2011,05,31,07,28,11.60
2011,05,31,07,29,11.70
2011,05,31,07,30,11.70
2011,05,31,07,31,11.80
2011,05,31,07,32,11.80
2011,05,31,07,33,11.80
2011,05,31,07,34,11.90
2011,05,31,07,35,11.90
2011,05,31,07,36,11.90
2011,05,31,07,37,12.00
2011,05,31,07,38,12.00
2011,05,31,07,39,12.10
2011,05,31,07,40,12.10
2011,05,31,07,41,12.10
2011,05,31,07,42,12.20
2011,05,31,07,43,12.20
2011,05,31,07,44,12.20
2011,05,31,07,45,12.20
2011,05,31,07,46,12.30
2011,05,31,07,47,12.30
2011,05,31,07,48,12.30
2011,05,31,07,49,12.40
2011,05,31,07,50,12.40
2011,05,31,07,51,12.40
2011,05,31,07,52,12.40
2011,05,31,07,53,12.50
2011,05,31,07,54,12.50
2011,05,31,07,55,12.50
2011,05,31,07,56,12.50
2011,05,31,07,57,12.50
2011,05,31,07,58,12.60
2011,05,31,07,59,12.60
2011,05,31,08,00,12.60
2011,05,31,08,01,12.60
2011,05,31,08,02,12.60
2011,05,31,08,03,12.70
2011,05,31,08,04,12.70
2011,05,31,08,05,12.70
2011,05,31,08,06,12.70
2011,05,31,08,07,12.70
2011,05,31,08,08,12.70
2011,05,31,08,09,12.80
2011,05,31,08,10,12.80
2011,05,31,08,11,12.80
2011,05,31,08,12,12.80
2011,05,31,08,13,12.90
2011,05,31,08,14,12.90
2011,05,31,08,15,12.90
2011,05,31,08,16,13.00
2011,05,31,08,17,13.00
2011,05,31,08,18,13.00
2011,05,31,08,19,13.00
2011,05,31,08,20,13.00
2011,05,31,08,21,13.10
2011,05,31,08,22,13.10
2011,05,31,08,23,13.10
2011,05,31,08,24,13.10
2011,05,31,08,25,13.10
2011,05,31,08,26,13.20
2011,05,31,08,27,13.20
2011,05,31,08,28,13.20
2011,05,31,08,29,13.20
2011,05,31,08,30,13.30
2011,05,31,08,31,13.30
2011,05,31,08,32,13.30
2011,05,31,08,33,13.40
2011,05,31,08,34,13.40
2011,05,31,08,35,13.40
2011,05,31,08,36,13.40
2011,05,31,08,37,13.50
2011,05,31,08,38,13.50
2011,05,31,08,39,13.60
2011,05,31,08,40,13.60
2011,05,31,08,41,13.60
2011,05,31,08,42,13.70
2011,05,31,08,43,13.70
2011,05,31,08,44,13.70
2011,05,31,08,45,13.70
2011,05,31,08,46,13.80
2011,05,31,08,47,13.80
2011,05,31,08,48,13.80
2011,05,31,08,49,13.90
2011,05,31,08,50,13.90
2011,05,31,08,51,13.90
2011,05,31,08,52,13.90
2011,05,31,08,53,14.00
2011,05,31,08,54,14.00
2011,05,31,08,55,14.00
2011,05,31,08,56,14.10
2011,05,31,08,57,14.10
2011,05,31,08,58,14.10
2011,05,31,08,59,14.10
2011,05,31,09,00,14.10
2011,05,31,09,01,14.10
2011,05,31,09,02,14.20
2011,05,31,09,03,14.20
2011,05,31,09,04,14.30
2011,05,31,09,05,14.30
2011,05,31,09,06,14.30
2011,05,31,09,07,14.30
2011,05,31,09,08,14.30
2011,05,31,09,09,14.30
2011,05,31,09,10,14.30
2011,05,31,09,11,14.30
2011,05,31,09,12,14.30
2011,05,31,09,13,14.30
2011,05,31,09,14,14.30
2011,05,31,09,15,14.30
2011,05,31,09,16,14.30
2011,05,31,09,17,14.20
2011,05,31,09,18,14.10
2011,05,31,09,19,14.10
2011,05,31,09,20,14.00
2011,05,31,09,21,13.90
2011,05,31,09,22,13.90
2011,05,31,09,23,13.80
2011,05,31,09,24,13.80
2011,05,31,09,25,13.80
2011,05,31,09,26,13.80
2011,05,31,09,27,13.80
2011,05,31,09,28,13.70
2011,05,31,09,29,13.80
2011,05,31,09,30,13.80
2011,05,31,09,31,13.80
2011,05,31,09,32,13.80
2011,05,31,09,33,13.90
2011,05,31,09,34,14.00
2011,05,31,09,35,14.10
2011,05,31,09,36,14.10
2011,05,31,09,37,14.20
2011,05,31,09,38,14.30
2011,05,31,09,39,14.40
2011,05,31,09,40,14.50
2011,05,31,09,41,14.60
2011,05,31,09,42,14.70
2011,05,31,09,43,14.80
2011,05,31,09,44,14.90
2011,05,31,09,45,15.00
2011,05,31,09,46,15.10
2011,05,31,09,47,15.10
2011,05,31,09,48,15.20
2011,05,31,09,49,15.20
2011,05,31,09,50,15.10
2011,05,31,09,51,15.10
2011,05,31,09,52,15.10
2011,05,31,09,53,15.20
2011,05,31,09,54,15.20
2011,05,31,09,55,15.30
2011,05,31,09,56,15.30
2011,05,31,09,57,15.30
2011,05,31,09,58,15.40
2011,05,31,09,59,15.40
2011,05,31,10,00,15.50
2011,05,31,10,01,15.50
2011,05,31,10,02,15.50
2011,05,31,10,03,15.60
2011,05,31,10,04,15.70
2011,05,31,10,05,15.70
2011,05,31,10,06,15.70
2011,05,31,10,07,15.80
2011,05,31,10,08,15.80
2011,05,31,10,09,15.90
2011,05,31,10,10,15.90
2011,05,31,10,11,16.00
2011,05,31,10,12,16.00
2011,05,31,10,13,16.00
2011,05,31,10,14,16.10
2011,05,31,10,15,16.10
2011,05,31,10,16,16.20
2011,05,31,10,17,16.20
2011,05,31,10,18,16.30
2011,05,31,10,19,16.30
2011,05,31,10,20,16.30
2011,05,31,10,21,16.30
2011,05,31,10,22,16.30
2011,05,31,10,23,16.30
2011,05,31,10,24,16.30
2011,05,31,10,25,16.30
2011,05,31,10,26,16.40
2011,05,31,10,27,16.40
2011,05,31,10,28,16.50
2011,05,31,10,29,16.50
2011,05,31,10,30,16.50
2011,05,31,10,31,16.50
2011,05,31,10,32,16.50
2011,05,31,10,33,16.50
2011,05,31,10,34,16.50
2011,05,31,10,35,16.40
2011,05,31,10,36,16.30
2011,05,31,10,37,16.30
2011,05,31,10,38,16.30
2011,05,31,10,39,16.30
2011,05,31,10,40,16.30
2011,05,31,10,41,16.30
2011,05,31,10,42,16.30
2011,05,31,10,43,16.30
2011,05,31,10,44,16.30
2011,05,31,10,45,16.30
2011,05,31,10,46,16.20
2011,05,31,10,47,16.20
2011,05,31,10,48,16.10
2011,05,31,10,49,16.10
2011,05,31,10,50,16.10
2011,05,31,10,51,16.00
2011,05,31,10,52,16.00
2011,05,31,10,53,16.10
2011,05,31,10,54,16.10
2011,05,31,10,55,16.10
2011,05,31,10,56,16.20
2011,05,31,10,57,16.30
2011,05,31,10,58,16.30
2011,05,31,10,59,16.30
2011,05,31,11,00,16.30
2011,05,31,11,01,16.30
2011,05,31,11,02,16.30
2011,05,31,11,03,16.30
2011,05,31,11,04,16.30
2011,05,31,11,05,16.30
2011,05,31,11,06,16.40
2011,05,31,11,07,16.40
2011,05,31,11,08,16.50
2011,05,31,11,09,16.60
2011,05,31,11,10,16.70
2011,05,31,11,11,16.80
2011,05,31,11,12,16.90
2011,05,31,11,13,17.10
2011,05,31,11,14,17.20
2011,05,31,11,15,17.30
2011,05,31,11,16,17.30
2011,05,31,11,17,17.40
2011,05,31,11,18,17.50
2011,05,31,11,19,17.60
2011,05,31,11,20,17.70
2011,05,31,11,21,17.80
2011,05,31,11,22,17.90
2011,05,31,11,23,18.00
2011,05,31,11,24,18.00
2011,05,31,11,25,18.10
2011,05,31,11,26,18.10
2011,05,31,11,27,18.10
2011,05,31,11,28,18.20
2011,05,31,11,29,18.20
2011,05,31,11,30,18.30
2011,05,31,11,31,18.30
2011,05,31,11,32,18.40
2011,05,31,11,33,18.40
2011,05,31,11,34,18.40
2011,05,31,11,35,18.40
2011,05,31,11,36,18.40
2011,05,31,11,37,18.50
2011,05,31,11,38,18.60
2011,05,31,11,39,18.70
2011,05,31,11,40,18.70
2011,05,31,11,41,18.80
2011,05,31,11,42,18.80
2011,05,31,11,43,18.80
2011,05,31,11,44,18.80
2011,05,31,11,45,18.80
2011,05,31,11,46,18.90
2011,05,31,11,47,18.90
2011,05,31,11,48,18.90
2011,05,31,11,49,18.90
2011,05,31,11,50,18.80
2011,05,31,11,51,18.80
2011,05,31,11,52,18.80
2011,05,31,11,53,18.70
2011,05,31,11,54,18.70
2011,05,31,11,55,18.70
2011,05,31,11,56,18.70
2011,05,31,11,57,18.60
2011,05,31,11,58,18.60
2011,05,31,11,59,18.50
2011,05,31,12,00,18.50
2011,05,31,12,01,18.50
2011,05,31,12,02,18.40
2011,05,31,12,03,18.40
2011,05,31,12,04,18.40
2011,05,31,12,05,18.40
2011,05,31,12,06,18.40
2011,05,31,12,07,18.30
2011,05,31,12,08,18.20
2011,05,31,12,09,18.10
2011,05,31,12,10,18.00
2011,05,31,12,11,17.90
2011,05,31,12,12,17.80
2011,05,31,12,13,17.80
2011,05,31,12,14,17.70
2011,05,31,12,15,17.70
2011,05,31,12,16,17.70
2011,05,31,12,17,17.60
2011,05,31,12,18,17.60
2011,05,31,12,19,17.60
2011,05,31,12,20,17.50
2011,05,31,12,21,17.50
2011,05,31,12,22,17.50
2011,05,31,12,23,17.50
2011,05,31,12,24,17.40
2011,05,31,12,25,17.40
2011,05,31,12,26,17.40
2011,05,31,12,27,17.30
2011,05,31,12,28,17.30
2011,05,31,12,29,17.20
2011,05,31,12,30,17.10
2011,05,31,12,31,17.00
2011,05,31,12,32,16.90
2011,05,31,12,33,16.80
2011,05,31,12,34,16.70
2011,05,31,12,35,16.60
2011,05,31,12,36,16.60
2011,05,31,12,37,16.50
2011,05,31,12,38,16.40
2011,05,31,12,39,16.30
2011,05,31,12,40,16.20
2011,05,31,12,41,16.20
2011,05,31,12,42,16.10
2011,05,31,12,43,16.00
2011,05,31,12,44,16.00
2011,05,31,12,45,15.90
2011,05,31,12,46,15.90
2011,05,31,12,47,15.80
2011,05,31,12,48,15.80
2011,05,31,12,49,15.80
2011,05,31,12,50,15.80
2011,05,31,12,51,15.70
2011,05,31,12,52,15.70
2011,05,31,12,53,15.70
2011,05,31,12,54,15.70
2011,05,31,12,55,15.70
2011,05,31,12,56,15.60
2011,05,31,12,57,15.60
2011,05,31,12,58,15.50
2011,05,31,12,59,15.50
2011,05,31,13,00,15.40
2011,05,31,13,01,15.40
2011,05,31,13,02,15.40
2011,05,31,13,03,15.40
2011,05,31,13,04,15.30
2011,05,31,13,05,15.30
2011,05,31,13,06,15.30
2011,05,31,13,07,15.30
2011,05,31,13,08,15.30
2011,05,31,13,09,15.20
2011,05,31,13,10,15.20
2011,05,31,13,11,15.20
2011,05,31,13,12,15.20
2011,05,31,13,13,15.10
2011,05,31,13,14,15.10
2011,05,31,13,15,15.00
2011,05,31,13,16,15.00
2011,05,31,13,17,14.90
2011,05,31,13,18,14.90
2011,05,31,13,19,14.90
2011,05,31,13,20,14.80
2011,05,31,13,21,14.80
2011,05,31,13,22,14.80
2011,05,31,13,23,14.80
2011,05,31,13,24,14.90
2011,05,31,13,25,14.90
2011,05,31,13,26,14.90
2011,05,31,13,27,14.90
2011,05,31,13,28,14.90
2011,05,31,13,29,14.90
2011,05,31,13,30,14.90
2011,05,31,13,31,14.90
2011,05,31,13,32,14.90
2011,05,31,13,33,14.80
2011,05,31,13,34,14.80
2011,05,31,13,35,14.80
2011,05,31,13,36,14.80
2011,05,31,13,37,14.80
2011,05,31,13,38,14.80
2011,05,31,13,39,14.90
2011,05,31,13,40,14.90
2011,05,31,13,41,14.90
2011,05,31,13,42,14.90
2011,05,31,13,43,14.90
2011,05,31,13,44,14.90
2011,05,31,13,45,15.00
2011,05,31,13,46,15.00
2011,05,31,13,47,15.00
2011,05,31,13,48,15.00
2011,05,31,13,49,15.00
2011,05,31,13,50,15.00
2011,05,31,13,51,15.00
2011,05,31,13,52,15.00
2011,05,31,13,53,15.00
2011,05,31,13,54,15.10
2011,05,31,13,55,15.10
2011,05,31,13,56,15.20
2011,05,31,13,57,15.30
2011,05,31,13,58,15.30
2011,05,31,13,59,15.40
2011,05,31,14,00,15.40
2011,05,31,14,01,15.50
2011,05,31,14,02,15.60
2011,05,31,14,03,15.70
2011,05,31,14,04,15.70
2011,05,31,14,05,15.80
2011,05,31,14,06,15.80
2011,05,31,14,07,15.90
2011,05,31,14,08,15.90
2011,05,31,14,09,16.00
2011,05,31,14,10,16.00
2011,05,31,14,11,15.90
2011,05,31,14,12,16.00
2011,05,31,14,13,16.00
2011,05,31,14,14,16.10
2011,05,31,14,15,16.10
2011,05,31,14,16,16.10
2011,05,31,14,17,16.20
2011,05,31,14,18,16.20
2011,05,31,14,19,16.10
2011,05,31,14,20,16.10
2011,05,31,14,21,16.10
2011,05,31,14,22,16.10
2011,05,31,14,23,16.20
2011,05,31,14,24,16.20
2011,05,31,14,25,16.20
2011,05,31,14,26,16.30
2011,05,31,14,27,16.30
2011,05,31,14,28,16.30
2011,05,31,14,29,16.40
2011,05,31,14,30,16.40
2011,05,31,14,31,16.40
2011,05,31,14,32,16.50
2011,05,31,14,33,16.50
2011,05,31,14,34,16.50
2011,05,31,14,35,16.60
2011,05,31,14,36,16.60
2011,05,31,14,37,16.50
2011,05,31,14,38,16.50
2011,05,31,14,39,16.50
2011,05,31,14,40,16.60
2011,05,31,14,41,16.60
2011,05,31,14,42,16.70
2011,05,31,14,43,16.80
2011,05,31,14,44,17.00
2011,05,31,14,45,17.10
2011,05,31,14,46,17.10
2011,05,31,14,47,17.10
2011,05,31,14,48,17.10
2011,05,31,14,49,17.00
2011,05,31,14,50,17.00
2011,05,31,14,51,17.00
2011,05,31,14,52,17.00
2011,05,31,14,53,17.10
2011,05,31,14,54,17.10
2011,05,31,14,55,17.20
2011,05,31,14,56,17.30
2011,05,31,14,57,17.40
2011,05,31,14,58,17.50
2011,05,31,14,59,17.60
2011,05,31,15,00,17.70
2011,05,31,15,01,17.60
2011,05,31,15,02,17.60
2011,05,31,15,03,17.60
2011,05,31,15,04,17.60
2011,05,31,15,05,17.60
2011,05,31,15,06,17.60
2011,05,31,15,07,17.70
2011,05,31,15,08,17.70
2011,05,31,15,09,17.70
2011,05,31,15,10,17.70
2011,05,31,15,11,17.60
2011,05,31,15,12,17.60
2011,05,31,15,13,17.60
2011,05,31,15,14,17.60
2011,05,31,15,15,17.60
2011,05,31,15,16,17.60
2011,05,31,15,17,17.60
2011,05,31,15,18,17.60
2011,05,31,15,19,17.60
2011,05,31,15,20,17.70
2011,05,31,15,21,17.70
2011,05,31,15,22,17.80
2011,05,31,15,23,17.90
2011,05,31,15,24,18.00
2011,05,31,15,25,18.00
2011,05,31,15,26,18.10
2011,05,31,15,27,18.20
2011,05,31,15,28,18.20
2011,05,31,15,29,18.20
2011,05,31,15,30,18.20
2011,05,31,15,31,18.10
2011,05,31,15,32,18.00
2011,05,31,15,33,17.90
2011,05,31,15,34,17.90
2011,05,31,15,35,17.90
2011,05,31,15,36,17.90
2011,05,31,15,37,17.90
2011,05,31,15,38,17.90
2011,05,31,15,39,17.90
2011,05,31,15,40,17.80
2011,05,31,15,41,17.80
2011,05,31,15,42,17.90
2011,05,31,15,43,17.90
2011,05,31,15,44,18.00
2011,05,31,15,45,18.10
2011,05,31,15,46,18.10
2011,05,31,15,47,18.10
2011,05,31,15,48,18.10
2011,05,31,15,49,18.00
2011,05,31,15,50,18.00
2011,05,31,15,51,17.90
2011,05,31,15,52,17.90
2011,05,31,15,53,17.80
2011,05,31,15,54,17.70
2011,05,31,15,55,17.70
2011,05,31,15,56,17.70
2011,05,31,15,57,17.70
2011,05,31,15,58,17.70
2011,05,31,15,59,17.80
2011,05,31,16,00,17.80
2011,05,31,16,01,17.80
2011,05,31,16,02,17.80
2011,05,31,16,03,17.90
2011,05,31,16,04,17.90
2011,05,31,16,05,17.90
2011,05,31,16,06,17.90
2011,05,31,16,07,17.90
2011,05,31,16,08,17.90
2011,05,31,16,09,17.90
2011,05,31,16,10,17.80
2011,05,31,16,11,17.80
2011,05,31,16,12,17.80
2011,05,31,16,13,17.70
2011,05,31,16,14,17.70
2011,05,31,16,15,17.70
2011,05,31,16,16,17.70
2011,05,31,16,17,17.70
2011,05,31,16,18,17.70
2011,05,31,16,19,17.70
2011,05,31,16,20,17.70
2011,05,31,16,21,17.60
2011,05,31,16,22,17.70
2011,05,31,16,23,17.70
2011,05,31,16,24,17.70
2011,05,31,16,25,17.70
2011,05,31,16,26,17.70
2011,05,31,16,27,17.60
2011,05,31,16,28,17.50
2011,05,31,16,29,17.50
2011,05,31,16,30,17.50
2011,05,31,16,31,17.40
2011,05,31,16,32,17.40
2011,05,31,16,33,17.40
2011,05,31,16,34,17.40
2011,05,31,16,35,17.40
2011,05,31,16,36,17.40
2011,05,31,16,37,17.50
2011,05,31,16,38,17.50
2011,05,31,16,39,17.50
2011,05,31,16,40,17.50
2011,05,31,16,41,17.60
2011,05,31,16,42,17.60
2011,05,31,16,43,17.60
2011,05,31,16,44,17.60
2011,05,31,16,45,17.60
2011,05,31,16,46,17.60
2011,05,31,16,47,17.60
2011,05,31,16,48,17.50
2011,05,31,16,49,17.60
2011,05,31,16,50,17.60
2011,05,31,16,51,17.50
2011,05,31,16,52,17.50
2011,05,31,16,53,17.50
2011,05,31,16,54,17.40
2011,05,31,16,55,17.40
2011,05,31,16,56,17.30
2011,05,31,16,57,17.20
2011,05,31,16,58,17.10
2011,05,31,16,59,17.10
2011,05,31,17,00,17.00
2011,05,31,17,01,16.90
2011,05,31,17,02,16.80
2011,05,31,17,03,16.70
2011,05,31,17,04,16.70
2011,05,31,17,05,16.60
2011,05,31,17,06,16.50
2011,05,31,17,07,16.40
2011,05,31,17,08,16.40
2011,05,31,17,09,16.30
2011,05,31,17,10,16.20
2011,05,31,17,11,16.10
2011,05,31,17,12,16.10
2011,05,31,17,13,16.00
2011,05,31,17,14,16.00
2011,05,31,17,15,16.00
2011,05,31,17,16,16.00
2011,05,31,17,17,16.00
2011,05,31,17,18,16.10
2011,05,31,17,19,16.10
2011,05,31,17,20,16.20
2011,05,31,17,21,16.20
2011,05,31,17,22,16.30
2011,05,31,17,23,16.30
2011,05,31,17,24,16.40
2011,05,31,17,25,16.40
2011,05,31,17,26,16.40
2011,05,31,17,27,16.40
2011,05,31,17,28,16.40
2011,05,31,17,29,16.40
2011,05,31,17,30,16.40
2011,05,31,17,31,16.50
2011,05,31,17,32,16.60
2011,05,31,17,33,16.60
2011,05,31,17,34,16.60
2011,05,31,17,35,16.60
2011,05,31,17,36,16.60
2011,05,31,17,37,16.50